Time,TemperatureF,DewpointF,PressureIn,WindDirection,WindDirectionDegrees,WindSpeedMPH,WindSpeedGustMPH,Humidity,HourlyPrecipIn,Conditions,Clouds,dailyrainin,SoftwareType,DateUTC
2013-08-11 00:01:00,77.0,74.5,30.12,South,180,0.0,0.0,92,0.00,CLR,,0.00,WeatherDisplay:10.37,2013-08-11 04:01:00,
2013-08-11 00:03:00,77.0,74.5,30.12,South,180,0.0,0.0,92,0.00,CLR,,0.00,WeatherDisplay:10.37,2013-08-11 04:03:00,
2013-08-11 00:08:00,76.8,74.6,30.12,South,180,0.0,0.0,93,0.00,CLR,,0.00,WeatherDisplay:10.37,2013-08-11 04:08:00,
2013-08-11 00:13:00,76.8,74.6,30.12,South,180,0.0,0.0,93,0.00,CLR,,0.00,WeatherDisplay:10.37,2013-08-11 04:13:00,
2013-08-11 00:18:00,76.8,74.6,30.12,South,180,0.0,0.0,93,0.00,CLR,,0.00,WeatherDisplay:10.37,2013-08-11 04:18:00,
2013-08-11 00:23:00,76.6,74.5,30.12,South,180,0.0,0.0,93,0.00,CLR,,0.00,WeatherDisplay:10.37,2013-08-11 04:23:00,
2013-08-11 00:28:00,76.6,74.5,30.12,South,180,0.0,0.0,93,0.00,CLR,,0.00,WeatherDisplay:10.37,2013-08-11 04:28:00,
2013-08-11 00:33:00,76.5,74.3,30.12,South,180,0.0,0.0,93,0.00,CLR,,0.00,WeatherDisplay:10.37,2013-08-11 04:33:00,
2013-08-11 00:38:00,76.5,74.3,30.12,South,180,0.0,0.0,93,0.00,CLR,,0.00,WeatherDisplay:10.37,2013-08-11 04:38:00,
2013-08-11 00:43:00,76.5,74.3,30.09,South,180,0.0,0.0,93,0.00,CLR,,0.00,WeatherDisplay:10.37,2013-08-11 04:43:00,
2013-08-11 00:48:00,76.3,74.1,30.09,South,180,0.0,0.0,93,0.00,CLR,,0.00,WeatherDisplay:10.37,2013-08-11 04:48:00,
2013-08-11 00:53:00,76.5,74.3,30.09,South,180,0.0,0.0,93,0.00,CLR,,0.00,WeatherDisplay:10.37,2013-08-11 04:53:00,
2013-08-11 00:58:00,76.5,74.3,30.09,South,180,0.0,0.0,93,0.00,CLR,,0.00,WeatherDisplay:10.37,2013-08-11 04:58:00,
2013-08-11 01:03:00,76.5,74.3,30.09,South,180,0.0,0.0,93,0.00,CLR,,0.00,WeatherDisplay:10.37,2013-08-11 05:03:00,
2013-08-11 01:08:00,76.5,74.6,30.09,South,180,0.0,0.0,94,0.00,CLR,,0.00,WeatherDisplay:10.37,2013-08-11 05:08:00,
2013-08-11 01:13:00,76.5,74.6,30.09,South,180,0.0,0.0,94,0.00,CLR,,0.00,WeatherDisplay:10.37,2013-08-11 05:13:00,
2013-08-11 01:18:00,76.5,74.6,30.09,South,180,0.0,0.0,94,0.00,CLR,,0.00,WeatherDisplay:10.37,2013-08-11 05:18:00,
2013-08-11 01:24:00,76.5,74.3,30.09,South,180,0.0,0.0,93,0.00,CLR,,0.00,WeatherDisplay:10.37,2013-08-11 05:24:00,
2013-08-11 01:29:00,76.5,74.3,30.09,South,180,0.0,0.0,93,0.00,CLR,,0.00,WeatherDisplay:10.37,2013-08-11 05:29:00,
2013-08-11 01:34:00,76.5,74.3,30.09,South,180,0.0,0.0,93,0.00,CLR,,0.00,WeatherDisplay:10.37,2013-08-11 05:34:00,
2013-08-11 01:39:00,76.5,74.3,30.09,South,180,0.0,0.0,93,0.00,CLR,,0.00,WeatherDisplay:10.37,2013-08-11 05:39:00,
2013-08-11 01:44:00,76.5,74.3,30.09,South,180,0.0,0.0,93,0.00,CLR,,0.00,WeatherDisplay:10.37,2013-08-11 05:44:00,
2013-08-11 01:49:00,76.5,74.3,30.09,South,180,0.0,0.0,93,0.00,CLR,,0.00,WeatherDisplay:10.37,2013-08-11 05:49:00,
2013-08-11 01:54:00,76.5,74.3,30.09,South,180,0.0,0.0,93,0.00,CLR,,0.00,WeatherDisplay:10.37,2013-08-11 05:54:00,
2013-08-11 02:00:00,76.5,74.3,30.09,South,180,0.0,0.0,93,0.00,CLR,,0.00,WeatherDisplay:10.37,2013-08-11 06:00:00,
2013-08-11 02:05:00,76.6,74.8,30.09,South,180,0.0,0.0,94,0.00,CLR,,0.00,WeatherDisplay:10.37,2013-08-11 06:05:00,
2013-08-11 02:10:00,76.6,74.8,30.09,South,180,0.0,0.0,94,0.00,CLR,,0.00,WeatherDisplay:10.37,2013-08-11 06:10:00,
2013-08-11 02:15:00,76.8,75.0,30.09,South,180,1.8,0.0,94,0.00,CLR,,0.00,WeatherDisplay:10.37,2013-08-11 06:15:00,
2013-08-11 02:20:00,77.0,74.8,30.09,South,180,2.3,0.0,93,0.00,CLR,,0.00,WeatherDisplay:10.37,2013-08-11 06:20:00,
2013-08-11 02:25:00,77.2,75.0,30.09,West,270,0.0,0.0,93,0.00,CLR,,0.00,WeatherDisplay:10.37,2013-08-11 06:25:00,
2013-08-11 02:30:00,77.4,75.2,30.09,West,270,0.0,0.0,93,0.00,CLR,,0.00,WeatherDisplay:10.37,2013-08-11 06:30:00,
2013-08-11 02:36:00,77.7,75.5,30.09,South,180,0.0,0.0,93,0.00,CLR,,0.00,WeatherDisplay:10.37,2013-08-11 06:36:00,
2013-08-11 02:41:00,77.7,75.5,30.09,South,180,0.0,0.0,93,0.00,CLR,,0.00,WeatherDisplay:10.37,2013-08-11 06:41:00,
2013-08-11 02:46:00,77.9,75.7,30.09,West,270,0.0,0.0,93,0.00,CLR,,0.00,WeatherDisplay:10.37,2013-08-11 06:46:00,
2013-08-11 02:51:00,77.9,75.7,30.09,West,270,0.0,0.0,93,0.00,CLR,,0.00,WeatherDisplay:10.37,2013-08-11 06:51:00,
2013-08-11 02:56:00,78.1,75.9,30.09,West,270,3.9,0.0,93,0.00,CLR,,0.00,WeatherDisplay:10.37,2013-08-11 06:56:00,
2013-08-11 03:01:00,78.3,76.1,30.09,WNW,292,4.6,0.0,93,0.00,CLR,,0.00,WeatherDisplay:10.37,2013-08-11 07:01:00,
2013-08-11 03:07:00,78.4,76.2,30.09,West,270,2.3,0.0,93,0.00,CLR,,0.00,WeatherDisplay:10.37,2013-08-11 07:07:00,
2013-08-11 03:12:00,78.4,76.2,30.09,West,270,0.0,0.0,93,0.00,CLR,,0.00,WeatherDisplay:10.37,2013-08-11 07:12:00,
2013-08-11 03:17:00,78.6,76.4,30.09,West,270,3.5,0.0,93,0.00,CLR,,0.00,WeatherDisplay:10.37,2013-08-11 07:17:00,
2013-08-11 03:22:00,78.6,76.4,30.09,West,270,1.8,0.0,93,0.00,CLR,,0.00,WeatherDisplay:10.37,2013-08-11 07:22:00,
2013-08-11 03:27:00,78.6,76.4,30.09,West,270,0.0,0.0,93,0.00,CLR,,0.00,WeatherDisplay:10.37,2013-08-11 07:27:00,
2013-08-11 03:32:00,78.8,76.6,30.09,WNW,292,0.0,0.0,93,0.00,CLR,,0.00,WeatherDisplay:10.37,2013-08-11 07:32:00,
2013-08-11 03:37:00,78.8,76.6,30.09,NW,315,1.8,0.0,93,0.00,CLR,,0.00,WeatherDisplay:10.37,2013-08-11 07:37:00,
2013-08-11 03:42:00,78.8,76.6,30.09,West,270,2.3,2.3,93,0.00,CLR,,0.00,WeatherDisplay:10.37,2013-08-11 07:42:00,
2013-08-11 03:47:00,78.8,76.6,30.09,WNW,292,0.0,0.0,93,0.00,CLR,,0.00,WeatherDisplay:10.37,2013-08-11 07:47:00,
2013-08-11 03:53:00,78.8,76.3,30.09,West,270,0.0,0.0,92,0.00,CLR,,0.00,WeatherDisplay:10.37,2013-08-11 07:53:00,
2013-08-11 03:58:00,78.8,76.3,30.09,West,270,0.0,0.0,92,0.00,CLR,,0.00,WeatherDisplay:10.37,2013-08-11 07:58:00,
2013-08-11 04:03:00,78.3,77.7,29.91,NNW,337,1.7,-999.0,98,-99.99,,,0.00,Acu-Link.com,2013-08-11 08:03:00,
2013-08-11 04:08:00,78.8,76.3,30.09,West,270,2.3,0.0,92,0.00,CLR,,0.00,WeatherDisplay:10.37,2013-08-11 08:08:00,
2013-08-11 04:13:00,78.8,76.3,30.09,West,270,3.5,3.5,92,0.00,CLR,,0.00,WeatherDisplay:10.37,2013-08-11 08:13:00,
2013-08-11 04:18:00,78.8,76.3,30.09,West,270,2.8,0.0,92,0.00,CLR,,0.00,WeatherDisplay:10.37,2013-08-11 08:18:00,
2013-08-11 04:23:00,78.8,76.3,30.09,West,270,2.3,0.0,92,0.00,CLR,,0.00,WeatherDisplay:10.37,2013-08-11 08:23:00,
2013-08-11 04:28:00,78.8,76.3,30.09,WNW,292,2.3,0.0,92,0.00,CLR,,0.00,WeatherDisplay:10.37,2013-08-11 08:28:00,
2013-08-11 04:34:00,78.6,76.4,30.09,West,270,2.3,0.0,93,0.00,CLR,,0.00,WeatherDisplay:10.37,2013-08-11 08:34:00,
2013-08-11 04:39:00,78.6,76.4,30.09,South,180,2.3,0.0,93,0.00,CLR,,0.00,WeatherDisplay:10.37,2013-08-11 08:39:00,
2013-08-11 04:44:00,78.6,76.4,30.09,South,180,0.0,0.0,93,0.00,CLR,,0.00,WeatherDisplay:10.37,2013-08-11 08:44:00,
2013-08-11 04:49:00,78.6,76.4,30.09,West,270,2.3,0.0,93,0.00,CLR,,0.00,WeatherDisplay:10.37,2013-08-11 08:49:00,
2013-08-11 04:54:00,78.6,76.4,30.09,West,270,2.3,0.0,93,0.00,CLR,,0.00,WeatherDisplay:10.37,2013-08-11 08:54:00,
2013-08-11 04:59:00,78.6,76.4,30.09,West,270,0.0,0.0,93,0.00,CLR,,0.00,WeatherDisplay:10.37,2013-08-11 08:59:00,
2013-08-11 05:05:00,78.6,76.4,30.09,West,270,0.0,0.0,93,0.00,CLR,,0.00,WeatherDisplay:10.37,2013-08-11 09:05:00,
2013-08-11 05:10:00,78.6,76.4,30.09,ESE,112,5.3,0.0,93,0.00,CLR,,0.00,WeatherDisplay:10.37,2013-08-11 09:10:00,
2013-08-11 05:15:00,78.6,76.4,30.09,NW,315,3.5,0.0,93,0.00,CLR,,0.00,WeatherDisplay:10.37,2013-08-11 09:15:00,
2013-08-11 05:20:00,78.6,76.4,30.09,NW,315,0.0,0.0,93,0.00,CLR,,0.00,WeatherDisplay:10.37,2013-08-11 09:20:00,
2013-08-11 05:25:00,78.6,76.4,30.09,WNW,292,0.0,0.0,93,0.00,CLR,,0.00,WeatherDisplay:10.37,2013-08-11 09:25:00,
2013-08-11 05:30:00,78.6,76.4,30.12,South,180,0.0,0.0,93,0.00,CLR,,0.00,WeatherDisplay:10.37,2013-08-11 09:30:00,
2013-08-11 05:35:00,78.6,76.4,30.12,North,0,3.5,3.5,93,0.00,CLR,,0.00,WeatherDisplay:10.37,2013-08-11 09:35:00,
2013-08-11 05:40:00,78.6,76.4,30.12,West,270,2.3,2.3,93,0.00,CLR,,0.00,WeatherDisplay:10.37,2013-08-11 09:40:00,
2013-08-11 05:45:00,78.4,76.2,30.12,WNW,292,0.0,0.0,93,0.00,CLR,,0.00,WeatherDisplay:10.37,2013-08-11 09:45:00,
2013-08-11 05:50:00,78.4,76.2,30.12,WNW,292,2.8,0.0,93,0.00,CLR,,0.00,WeatherDisplay:10.37,2013-08-11 09:50:00,
2013-08-11 05:55:00,78.4,76.2,30.12,WNW,292,0.0,0.0,93,0.00,CLR,,0.00,WeatherDisplay:10.37,2013-08-11 09:55:00,
2013-08-11 06:00:00,78.4,76.2,30.12,West,270,0.0,0.0,93,0.00,CLR,,0.00,WeatherDisplay:10.37,2013-08-11 10:00:00,
2013-08-11 06:06:00,78.4,76.2,30.12,West,270,2.3,0.0,93,0.00,CLR,,0.00,WeatherDisplay:10.37,2013-08-11 10:06:00,
2013-08-11 06:11:00,78.4,76.2,30.12,West,270,0.0,0.0,93,0.00,CLR,,0.00,WeatherDisplay:10.37,2013-08-11 10:11:00,
2013-08-11 06:16:00,78.4,76.2,30.12,West,270,0.0,0.0,93,0.00,CLR,,0.00,WeatherDisplay:10.37,2013-08-11 10:16:00,
2013-08-11 06:21:00,78.4,76.2,30.12,West,270,0.0,0.0,93,0.00,CLR,,0.00,WeatherDisplay:10.37,2013-08-11 10:21:00,
2013-08-11 06:26:00,78.4,76.2,30.12,South,180,0.0,0.0,93,0.00,CLR,,0.00,WeatherDisplay:10.37,2013-08-11 10:26:00,
2013-08-11 06:31:00,78.4,76.2,30.12,South,180,0.0,0.0,93,0.00,CLR,,0.00,WeatherDisplay:10.37,2013-08-11 10:31:00,
2013-08-11 06:36:00,78.3,76.1,30.12,West,270,0.0,0.0,93,0.00,CLR,,0.00,WeatherDisplay:10.37,2013-08-11 10:36:00,
2013-08-11 06:41:00,78.3,76.1,30.12,South,180,0.0,0.0,93,0.00,CLR,,0.00,WeatherDisplay:10.37,2013-08-11 10:41:00,
2013-08-11 06:46:00,78.3,76.1,30.12,South,180,0.0,0.0,93,0.00,CLR,,0.00,WeatherDisplay:10.37,2013-08-11 10:46:00,
2013-08-11 06:51:00,78.4,76.2,30.12,West,270,2.3,0.0,93,0.00,CLR,,0.00,WeatherDisplay:10.37,2013-08-11 10:51:00,
2013-08-11 06:56:00,78.4,76.2,30.12,ENE,68,0.0,0.0,93,0.00,CLR,,0.00,WeatherDisplay:10.37,2013-08-11 10:56:00,
2013-08-11 07:01:00,78.4,76.2,30.12,South,180,0.0,0.0,93,0.00,CLR,,0.00,WeatherDisplay:10.37,2013-08-11 11:01:00,
2013-08-11 07:06:00,78.4,76.2,30.12,NNE,22,0.0,0.0,93,0.00,CLR,,0.00,WeatherDisplay:10.37,2013-08-11 11:06:00,
2013-08-11 07:12:00,78.6,76.4,30.12,NNE,22,0.0,0.0,93,0.00,CLR,,0.00,WeatherDisplay:10.37,2013-08-11 11:12:00,
2013-08-11 07:17:00,78.6,76.4,30.12,WNW,292,0.0,0.0,93,0.00,CLR,,0.00,WeatherDisplay:10.37,2013-08-11 11:17:00,
2013-08-11 07:22:00,78.8,76.6,30.12,East,90,0.0,0.0,93,0.00,CLR,,0.00,WeatherDisplay:10.37,2013-08-11 11:22:00,
2013-08-11 07:27:00,79.0,76.8,30.12,South,180,0.0,0.0,93,0.00,CLR,,0.00,WeatherDisplay:10.37,2013-08-11 11:27:00,
2013-08-11 07:32:00,79.0,76.8,30.12,South,180,0.0,0.0,93,0.00,CLR,,0.00,WeatherDisplay:10.37,2013-08-11 11:32:00,
2013-08-11 07:37:00,79.7,79.1,29.94,NW,315,0.0,-999.0,98,-99.99,,,0.00,Acu-Link.com,2013-08-11 11:37:00,
2013-08-11 07:42:00,79.3,77.1,30.12,SE,135,2.3,0.0,93,0.00,CLR,,0.00,WeatherDisplay:10.37,2013-08-11 11:42:00,
2013-08-11 07:47:00,79.5,77.3,30.12,South,180,2.3,0.0,93,0.00,CLR,,0.00,WeatherDisplay:10.37,2013-08-11 11:47:00,
2013-08-11 07:52:00,79.5,77.3,30.12,NNE,22,0.0,0.0,93,0.00,CLR,,0.00,WeatherDisplay:10.37,2013-08-11 11:52:00,
2013-08-11 07:57:00,79.7,77.5,30.15,WNW,292,4.6,4.6,93,0.00,CLR,,0.00,WeatherDisplay:10.37,2013-08-11 11:57:00,
2013-08-11 08:03:00,79.9,77.7,30.15,West,270,0.0,0.0,93,0.00,CLR,,0.00,WeatherDisplay:10.37,2013-08-11 12:03:00,
2013-08-11 08:08:00,79.9,77.3,30.15,West,270,0.0,0.0,92,0.00,CLR,,0.00,WeatherDisplay:10.37,2013-08-11 12:08:00,
2013-08-11 08:13:00,80.1,77.5,30.15,West,270,2.8,0.0,92,0.00,CLR,,0.00,WeatherDisplay:10.37,2013-08-11 12:13:00,
2013-08-11 08:18:00,80.2,77.7,30.15,NNE,22,0.0,0.0,92,0.00,CLR,,0.00,WeatherDisplay:10.37,2013-08-11 12:18:00,
2013-08-11 08:23:00,80.6,78.1,30.15,NNE,22,0.0,0.0,92,0.00,CLR,,0.00,WeatherDisplay:10.37,2013-08-11 12:23:00,
2013-08-11 08:29:00,81.1,78.3,30.15,NNE,22,3.5,3.5,91,0.00,CLR,,0.00,WeatherDisplay:10.37,2013-08-11 12:29:00,
2013-08-11 08:34:00,81.3,78.4,30.15,West,270,0.0,0.0,91,0.00,CLR,,0.00,WeatherDisplay:10.37,2013-08-11 12:34:00,
2013-08-11 08:39:00,81.5,78.3,30.15,NNE,22,0.0,0.0,90,0.00,CLR,,0.00,WeatherDisplay:10.37,2013-08-11 12:39:00,
2013-08-11 08:44:00,81.7,78.5,30.15,ESE,112,0.0,0.0,90,0.00,CLR,,0.00,WeatherDisplay:10.37,2013-08-11 12:44:00,
2013-08-11 08:49:00,81.9,78.6,30.15,ESE,112,2.8,0.0,90,0.00,CLR,,0.00,WeatherDisplay:10.37,2013-08-11 12:49:00,
2013-08-11 08:54:00,82.6,79.0,30.15,ESE,112,0.0,0.0,89,0.00,CLR,,0.00,WeatherDisplay:10.37,2013-08-11 12:54:00,
2013-08-11 08:59:00,82.9,79.4,30.15,WNW,292,0.0,0.0,89,0.00,CLR,,0.00,WeatherDisplay:10.37,2013-08-11 12:59:00,
2013-08-11 09:05:00,83.3,79.7,30.15,SSE,158,0.0,0.0,89,0.00,CLR,,0.00,WeatherDisplay:10.37,2013-08-11 13:05:00,
2013-08-11 09:10:00,83.5,79.5,30.15,ENE,68,0.0,0.0,88,0.00,CLR,,0.00,WeatherDisplay:10.37,2013-08-11 13:10:00,
2013-08-11 09:15:00,83.5,79.5,30.15,West,270,0.0,0.0,88,0.00,CLR,,0.00,WeatherDisplay:10.37,2013-08-11 13:15:00,
2013-08-11 09:20:00,83.7,79.7,30.15,West,270,0.0,0.0,88,0.00,CLR,,0.00,WeatherDisplay:10.37,2013-08-11 13:20:00,
2013-08-11 09:25:00,83.7,79.7,30.15,West,270,2.3,0.0,88,0.00,CLR,,0.00,WeatherDisplay:10.37,2013-08-11 13:25:00,
2013-08-11 09:30:00,83.7,79.7,30.12,West,270,2.3,2.3,88,0.00,CLR,,0.00,WeatherDisplay:10.37,2013-08-11 13:30:00,
2013-08-11 09:35:00,84.2,79.2,30.12,West,270,3.5,0.0,85,0.00,CLR,,0.00,WeatherDisplay:10.37,2013-08-11 13:35:00,
2013-08-11 09:40:00,84.2,79.2,30.12,West,270,2.3,0.0,85,0.00,CLR,,0.00,WeatherDisplay:10.37,2013-08-11 13:40:00,
2013-08-11 09:45:00,84.6,79.2,30.15,West,270,0.0,0.0,84,0.00,CLR,,0.00,WeatherDisplay:10.37,2013-08-11 13:45:00,
2013-08-11 09:50:00,84.6,78.8,30.15,West,270,0.0,0.0,83,0.00,CLR,,0.00,WeatherDisplay:10.37,2013-08-11 13:50:00,
2013-08-11 09:55:00,84.7,78.6,30.15,West,270,0.0,0.0,82,0.00,CLR,,0.00,WeatherDisplay:10.37,2013-08-11 13:55:00,
2013-08-11 10:00:00,85.1,78.2,30.15,NNE,22,4.6,4.6,80,0.00,CLR,,0.00,WeatherDisplay:10.37,2013-08-11 14:00:00,
2013-08-11 10:06:00,85.3,78.4,30.15,NNE,22,4.8,0.0,80,0.00,CLR,,0.00,WeatherDisplay:10.37,2013-08-11 14:06:00,
2013-08-11 10:11:00,85.6,78.4,30.15,NE,45,3.2,0.0,79,0.00,CLR,,0.00,WeatherDisplay:10.37,2013-08-11 14:11:00,
2013-08-11 10:16:00,86.0,78.3,30.15,NNE,22,4.6,0.0,78,0.00,CLR,,0.00,WeatherDisplay:10.37,2013-08-11 14:16:00,
2013-08-11 10:21:00,86.2,78.9,30.15,WNW,292,0.0,0.0,79,0.00,CLR,,0.00,WeatherDisplay:10.37,2013-08-11 14:21:00,
2013-08-11 10:26:00,86.4,79.5,30.15,WNW,292,3.5,3.5,80,0.00,CLR,,0.00,WeatherDisplay:10.37,2013-08-11 14:26:00,
2013-08-11 10:32:00,86.2,79.3,30.12,WNW,292,4.4,0.0,80,0.00,CLR,,0.00,WeatherDisplay:10.37,2013-08-11 14:32:00,
2013-08-11 10:37:00,86.2,79.7,30.12,WNW,292,4.6,4.6,81,0.00,CLR,,0.00,WeatherDisplay:10.37,2013-08-11 14:37:00,
2013-08-11 10:42:00,86.2,79.7,30.12,WNW,292,2.8,0.0,81,0.00,CLR,,0.00,WeatherDisplay:10.37,2013-08-11 14:42:00,
2013-08-11 10:47:00,86.2,79.7,30.12,West,270,3.5,3.5,81,0.00,CLR,,0.00,WeatherDisplay:10.37,2013-08-11 14:47:00,
2013-08-11 10:52:00,86.0,79.9,30.12,West,270,3.5,3.5,82,0.00,CLR,,0.00,WeatherDisplay:10.37,2013-08-11 14:52:00,
2013-08-11 10:57:00,86.0,79.9,30.12,West,270,3.5,3.5,82,0.00,CLR,,0.00,WeatherDisplay:10.37,2013-08-11 14:57:00,
2013-08-11 11:02:00,85.8,80.1,30.12,West,270,4.6,4.6,83,0.00,CLR,,0.00,WeatherDisplay:10.37,2013-08-11 15:02:00,
2013-08-11 11:07:00,85.8,80.1,30.12,West,270,5.8,5.8,83,0.00,CLR,,0.00,WeatherDisplay:10.37,2013-08-11 15:07:00,
2013-08-11 11:12:00,85.5,79.7,30.12,West,270,4.6,4.6,83,0.00,CLR,,0.00,WeatherDisplay:10.37,2013-08-11 15:12:00,
2013-08-11 11:17:00,85.3,79.9,30.12,West,270,5.8,5.8,84,0.00,CLR,,0.00,WeatherDisplay:10.37,2013-08-11 15:17:00,
2013-08-11 11:23:00,85.1,79.4,30.12,West,270,5.8,5.8,83,0.00,CLR,,0.00,WeatherDisplay:10.37,2013-08-11 15:23:00,
2013-08-11 11:28:00,85.1,79.4,30.15,West,270,5.8,5.8,83,0.00,CLR,,0.00,WeatherDisplay:10.37,2013-08-11 15:28:00,
2013-08-11 11:33:00,84.9,79.5,30.15,West,270,6.9,6.9,84,0.00,CLR,,0.00,WeatherDisplay:10.37,2013-08-11 15:33:00,
2013-08-11 11:38:00,84.7,79.4,30.15,West,270,5.8,5.8,84,0.00,CLR,,0.00,WeatherDisplay:10.37,2013-08-11 15:38:00,
2013-08-11 11:43:00,84.7,79.4,30.12,West,270,5.8,5.8,84,0.00,CLR,,0.00,WeatherDisplay:10.37,2013-08-11 15:43:00,
2013-08-11 11:48:00,84.7,79.4,30.12,West,270,4.6,4.6,84,0.00,CLR,,0.00,WeatherDisplay:10.37,2013-08-11 15:48:00,
2013-08-11 11:53:00,84.6,79.2,30.12,West,270,5.8,5.8,84,0.00,CLR,,0.00,WeatherDisplay:10.37,2013-08-11 15:53:00,
2013-08-11 11:58:00,84.6,79.2,30.12,West,270,4.6,4.6,84,0.00,CLR,,0.00,WeatherDisplay:10.37,2013-08-11 15:58:00,
2013-08-11 12:03:00,84.7,79.7,30.12,West,270,5.8,5.8,85,0.00,CLR,,0.00,WeatherDisplay:10.37,2013-08-11 16:03:00,
2013-08-11 12:09:00,84.7,79.4,30.12,West,270,6.9,6.9,84,0.00,CLR,,0.00,WeatherDisplay:10.37,2013-08-11 16:09:00,
2013-08-11 12:14:00,84.7,79.4,30.12,West,270,5.8,5.8,84,0.00,CLR,,0.00,WeatherDisplay:10.37,2013-08-11 16:14:00,
2013-08-11 12:19:00,84.6,79.5,30.12,West,270,5.8,5.8,85,0.00,CLR,,0.00,WeatherDisplay:10.37,2013-08-11 16:19:00,
2013-08-11 12:24:00,84.7,79.7,30.12,West,270,6.9,6.9,85,0.00,CLR,,0.00,WeatherDisplay:10.37,2013-08-11 16:24:00,
2013-08-11 12:29:00,84.7,79.4,30.12,West,270,5.8,5.8,84,0.00,CLR,,0.00,WeatherDisplay:10.37,2013-08-11 16:29:00,
2013-08-11 12:34:00,84.7,79.4,30.12,WNW,292,3.5,3.5,84,0.00,CLR,,0.00,WeatherDisplay:10.37,2013-08-11 16:34:00,
2013-08-11 12:39:00,84.7,79.4,30.12,West,270,5.8,5.8,84,0.00,CLR,,0.00,WeatherDisplay:10.37,2013-08-11 16:39:00,
2013-08-11 12:45:00,84.7,79.4,30.12,West,270,5.8,5.8,84,0.00,CLR,,0.00,WeatherDisplay:10.37,2013-08-11 16:45:00,
2013-08-11 12:50:00,84.7,79.4,30.12,West,270,5.8,5.8,84,0.00,CLR,,0.00,WeatherDisplay:10.37,2013-08-11 16:50:00,
2013-08-11 12:55:00,84.7,79.0,30.12,West,270,6.9,6.9,83,0.00,CLR,,0.00,WeatherDisplay:10.37,2013-08-11 16:55:00,
2013-08-11 13:00:00,84.7,79.4,30.12,West,270,5.8,5.8,84,0.00,CLR,,0.00,WeatherDisplay:10.37,2013-08-11 17:00:00,
2013-08-11 13:05:00,84.9,79.5,30.12,West,270,5.8,5.8,84,0.00,CLR,,0.00,WeatherDisplay:10.37,2013-08-11 17:05:00,
2013-08-11 13:10:00,85.3,79.9,30.12,West,270,5.8,5.8,84,0.00,CLR,,0.00,WeatherDisplay:10.37,2013-08-11 17:10:00,
2013-08-11 13:16:00,85.3,79.5,30.15,West,270,5.8,5.8,83,0.00,CLR,,0.00,WeatherDisplay:10.37,2013-08-11 17:16:00,
2013-08-11 13:21:00,85.3,79.5,30.15,West,270,4.8,4.8,83,0.00,CLR,,0.00,WeatherDisplay:10.37,2013-08-11 17:21:00,
2013-08-11 13:26:00,85.5,80.1,30.12,West,270,5.8,5.8,84,0.00,CLR,,0.00,WeatherDisplay:10.37,2013-08-11 17:26:00,
2013-08-11 13:31:00,86.0,80.6,30.12,WNW,292,4.6,4.6,84,0.00,CLR,,0.00,WeatherDisplay:10.37,2013-08-11 17:31:00,
2013-08-11 13:36:00,86.0,80.6,30.12,West,270,7.1,7.1,84,0.00,CLR,,0.00,WeatherDisplay:10.37,2013-08-11 17:36:00,
2013-08-11 13:41:00,86.2,80.4,30.12,West,270,8.1,8.1,83,0.00,CLR,,0.00,WeatherDisplay:10.37,2013-08-11 17:41:00,
2013-08-11 13:47:00,86.4,80.6,30.12,West,270,5.8,5.8,83,0.00,CLR,,0.00,WeatherDisplay:10.37,2013-08-11 17:47:00,
2013-08-11 13:52:00,86.5,80.4,30.12,West,270,5.8,5.8,82,0.00,CLR,,0.00,WeatherDisplay:10.37,2013-08-11 17:52:00,
2013-08-11 13:57:00,86.9,80.7,30.12,West,270,5.8,5.8,82,0.00,CLR,,0.00,WeatherDisplay:10.37,2013-08-11 17:57:00,
2013-08-11 14:02:00,87.1,80.5,30.12,West,270,7.1,7.1,81,0.00,CLR,,0.00,WeatherDisplay:10.37,2013-08-11 18:02:00,
2013-08-11 14:07:00,87.3,80.7,30.12,West,270,4.8,4.8,81,0.00,CLR,,0.00,WeatherDisplay:10.37,2013-08-11 18:07:00,
2013-08-11 14:12:00,87.3,79.9,30.12,West,270,6.9,6.9,79,0.00,CLR,,0.00,WeatherDisplay:10.37,2013-08-11 18:12:00,
2013-08-11 14:17:00,87.1,80.5,30.12,West,270,5.8,5.8,81,0.00,CLR,,0.00,WeatherDisplay:10.37,2013-08-11 18:17:00,
2013-08-11 14:23:00,87.3,80.7,30.12,West,270,6.2,6.2,81,0.00,CLR,,0.00,WeatherDisplay:10.37,2013-08-11 18:23:00,
2013-08-11 14:28:00,87.3,80.3,30.12,West,270,5.8,5.8,80,0.00,CLR,,0.00,WeatherDisplay:10.37,2013-08-11 18:28:00,
2013-08-11 14:33:00,86.9,80.0,30.12,West,270,4.6,4.6,80,0.00,CLR,,0.00,WeatherDisplay:10.37,2013-08-11 18:33:00,
2013-08-11 14:38:00,86.4,79.5,30.12,WNW,292,4.8,4.8,80,0.00,CLR,,0.00,WeatherDisplay:10.37,2013-08-11 18:38:00,
2013-08-11 14:44:00,85.5,79.0,30.12,WNW,292,3.5,3.5,81,0.00,CLR,,0.00,WeatherDisplay:10.37,2013-08-11 18:44:00,
2013-08-11 14:49:00,85.1,79.0,30.12,NW,315,3.5,3.5,82,0.00,CLR,,0.00,WeatherDisplay:10.37,2013-08-11 18:49:00,
2013-08-11 14:54:00,84.6,78.8,30.12,West,270,5.3,5.3,83,0.00,CLR,,0.00,WeatherDisplay:10.37,2013-08-11 18:54:00,
2013-08-11 14:59:00,84.2,78.5,30.12,West,270,4.6,4.6,83,0.00,CLR,,0.00,WeatherDisplay:10.37,2013-08-11 18:59:00,
2013-08-11 15:04:00,83.8,78.8,30.12,South,180,5.8,5.8,85,0.00,CLR,,0.00,WeatherDisplay:10.37,2013-08-11 19:04:00,
2013-08-11 15:10:00,83.8,78.8,30.12,West,270,3.5,3.5,85,0.00,CLR,,0.00,WeatherDisplay:10.37,2013-08-11 19:10:00,
2013-08-11 15:15:00,83.5,78.5,30.12,West,270,5.8,5.8,85,0.00,CLR,,0.00,WeatherDisplay:10.37,2013-08-11 19:15:00,
2013-08-11 15:20:00,83.3,78.7,30.12,West,270,5.8,5.8,86,0.00,CLR,,0.00,WeatherDisplay:10.37,2013-08-11 19:20:00,
2013-08-11 15:25:00,83.1,78.5,30.12,West,270,5.8,5.8,86,0.00,CLR,,0.00,WeatherDisplay:10.37,2013-08-11 19:25:00,
2013-08-11 15:31:00,83.1,78.5,30.09,West,270,4.8,4.8,86,0.00,CLR,,0.00,WeatherDisplay:10.37,2013-08-11 19:31:00,
2013-08-11 15:36:00,82.9,78.3,30.09,West,270,4.6,4.6,86,0.00,CLR,,0.00,WeatherDisplay:10.37,2013-08-11 19:36:00,
2013-08-11 15:41:00,82.8,78.1,30.09,West,270,5.8,5.8,86,0.00,CLR,,0.00,WeatherDisplay:10.37,2013-08-11 19:41:00,
2013-08-11 15:46:00,82.6,78.0,30.09,West,270,5.8,5.8,86,0.00,CLR,,0.00,WeatherDisplay:10.37,2013-08-11 19:46:00,
2013-08-11 15:51:00,82.4,77.4,30.09,West,270,5.8,5.8,85,0.00,CLR,,0.00,WeatherDisplay:10.37,2013-08-11 19:51:00,
2013-08-11 15:57:00,82.0,77.1,30.09,South,180,4.6,4.6,85,0.00,CLR,,0.00,WeatherDisplay:10.37,2013-08-11 19:57:00,
2013-08-11 16:02:00,81.7,76.7,30.09,West,270,3.5,3.5,85,0.00,CLR,,0.00,WeatherDisplay:10.37,2013-08-11 20:02:00,
2013-08-11 16:07:00,81.3,76.0,30.09,South,180,4.4,4.4,84,0.00,CLR,,0.00,WeatherDisplay:10.37,2013-08-11 20:07:00,
2013-08-11 16:12:00,81.0,75.7,30.09,West,270,3.9,3.9,84,0.00,CLR,,0.00,WeatherDisplay:10.37,2013-08-11 20:12:00,
2013-08-11 16:17:00,80.6,75.3,30.09,South,180,4.6,0.0,84,0.00,CLR,,0.00,WeatherDisplay:10.37,2013-08-11 20:17:00,
2013-08-11 16:22:00,80.6,75.3,30.09,West,270,4.8,4.8,84,0.00,CLR,,0.00,WeatherDisplay:10.37,2013-08-11 20:22:00,
2013-08-11 16:28:00,80.6,75.3,30.06,West,270,0.0,0.0,84,0.00,CLR,,0.00,WeatherDisplay:10.37,2013-08-11 20:28:00,
2013-08-11 16:33:00,80.2,75.3,30.06,West,270,2.3,2.3,85,0.00,CLR,,0.00,WeatherDisplay:10.37,2013-08-11 20:33:00,
2013-08-11 16:38:00,80.2,75.3,30.06,West,270,0.0,0.0,85,0.00,CLR,,0.00,WeatherDisplay:10.37,2013-08-11 20:38:00,
2013-08-11 16:43:00,80.1,75.5,30.09,West,270,3.2,0.0,86,0.00,CLR,,0.00,WeatherDisplay:10.37,2013-08-11 20:43:00,
2013-08-11 16:48:00,80.2,75.7,30.09,West,270,0.0,0.0,86,0.00,CLR,,0.00,WeatherDisplay:10.37,2013-08-11 20:48:00,
2013-08-11 16:53:00,80.2,75.3,30.09,WNW,292,3.5,3.5,85,0.00,CLR,,0.00,WeatherDisplay:10.37,2013-08-11 20:53:00,
2013-08-11 16:58:00,80.4,75.5,30.06,West,270,4.6,4.6,85,0.00,CLR,,0.00,WeatherDisplay:10.37,2013-08-11 20:58:00,
2013-08-11 17:03:00,80.6,75.7,30.06,West,270,5.8,5.8,85,0.00,CLR,,0.00,WeatherDisplay:10.37,2013-08-11 21:03:00,
2013-08-11 17:09:00,80.8,75.8,30.06,South,180,3.9,3.9,85,0.00,CLR,,0.00,WeatherDisplay:10.37,2013-08-11 21:09:00,
2013-08-11 17:14:00,81.0,75.7,30.06,West,270,2.3,0.0,84,0.00,CLR,,0.00,WeatherDisplay:10.37,2013-08-11 21:14:00,
2013-08-11 17:19:00,81.1,75.8,30.06,West,270,4.4,4.4,84,0.00,CLR,,0.00,WeatherDisplay:10.37,2013-08-11 21:19:00,
2013-08-11 17:24:00,81.1,75.8,30.06,West,270,3.5,3.5,84,0.00,CLR,,0.00,WeatherDisplay:10.37,2013-08-11 21:24:00,
2013-08-11 17:29:00,81.1,75.8,30.06,West,270,4.6,4.6,84,0.00,CLR,,0.00,WeatherDisplay:10.37,2013-08-11 21:29:00,
2013-08-11 17:34:00,81.1,75.8,30.06,West,270,4.6,4.6,84,0.00,CLR,,0.00,WeatherDisplay:10.37,2013-08-11 21:34:00,
2013-08-11 17:39:00,81.1,75.8,30.06,West,270,4.6,4.6,84,0.00,CLR,,0.00,WeatherDisplay:10.37,2013-08-11 21:39:00,
2013-08-11 17:45:00,81.1,75.8,30.06,West,270,4.6,4.6,84,0.00,CLR,,0.00,WeatherDisplay:10.37,2013-08-11 21:45:00,
2013-08-11 17:50:00,81.5,75.8,30.06,NW,315,2.3,2.3,83,0.00,CLR,,0.00,WeatherDisplay:10.37,2013-08-11 21:50:00,
2013-08-11 17:55:00,81.5,75.8,30.06,WNW,292,3.5,3.5,83,0.00,CLR,,0.00,WeatherDisplay:10.37,2013-08-11 21:55:00,
2013-08-11 18:00:00,81.5,75.8,30.06,West,270,5.8,5.8,83,0.00,CLR,,0.00,WeatherDisplay:10.37,2013-08-11 22:00:00,
2013-08-11 18:05:00,81.5,75.8,30.06,South,180,6.9,6.9,83,0.00,CLR,,0.00,WeatherDisplay:10.37,2013-08-11 22:05:00,
2013-08-11 18:10:00,81.5,75.8,30.06,WNW,292,5.8,5.8,83,0.00,CLR,,0.00,WeatherDisplay:10.37,2013-08-11 22:10:00,
2013-08-11 18:15:00,81.5,75.8,30.06,WNW,292,2.3,2.3,83,0.00,CLR,,0.00,WeatherDisplay:10.37,2013-08-11 22:15:00,
2013-08-11 18:20:00,81.5,75.8,30.06,West,270,3.9,3.9,83,0.00,CLR,,0.00,WeatherDisplay:10.37,2013-08-11 22:20:00,
2013-08-11 18:26:00,81.5,75.8,30.06,WNW,292,4.6,4.6,83,0.00,CLR,,0.00,WeatherDisplay:10.37,2013-08-11 22:26:00,
2013-08-11 18:31:00,81.1,75.8,30.06,West,270,4.6,0.0,84,0.00,CLR,,0.00,WeatherDisplay:10.37,2013-08-11 22:31:00,
2013-08-11 18:36:00,81.0,75.7,30.06,West,270,3.5,0.0,84,0.00,CLR,,0.00,WeatherDisplay:10.37,2013-08-11 22:36:00,
2013-08-11 18:41:00,81.0,75.7,30.06,West,270,3.5,3.5,84,0.00,CLR,,0.00,WeatherDisplay:10.37,2013-08-11 22:41:00,
2013-08-11 18:46:00,81.0,75.7,30.03,West,270,3.9,3.9,84,0.00,CLR,,0.00,WeatherDisplay:10.37,2013-08-11 22:46:00,
2013-08-11 18:51:00,81.0,75.7,30.03,WNW,292,2.3,0.0,84,0.00,CLR,,0.00,WeatherDisplay:10.37,2013-08-11 22:51:00,
2013-08-11 18:56:00,81.3,76.7,30.06,West,270,3.5,0.0,86,0.00,CLR,,0.00,WeatherDisplay:10.37,2013-08-11 22:56:00,
2013-08-11 19:02:00,81.3,76.7,30.06,West,270,4.6,4.6,86,0.00,CLR,,0.00,WeatherDisplay:10.37,2013-08-11 23:02:00,
2013-08-11 19:07:00,81.7,77.8,30.06,WNW,292,3.5,0.0,88,0.00,CLR,,0.00,WeatherDisplay:10.37,2013-08-11 23:07:00,
2013-08-11 19:12:00,81.7,77.8,30.06,WNW,292,3.5,3.5,88,0.00,CLR,,0.00,WeatherDisplay:10.37,2013-08-11 23:12:00,
2013-08-11 19:17:00,81.9,78.3,30.06,West,270,5.8,5.8,89,0.00,CLR,,0.00,WeatherDisplay:10.37,2013-08-11 23:17:00,
2013-08-11 19:22:00,81.9,78.3,30.06,West,270,3.5,3.5,89,0.00,CLR,,0.00,WeatherDisplay:10.37,2013-08-11 23:22:00,
2013-08-11 19:27:00,81.9,78.3,30.06,West,270,5.8,5.8,89,0.00,CLR,,0.00,WeatherDisplay:10.37,2013-08-11 23:27:00,
2013-08-11 19:32:00,81.7,78.1,30.06,West,270,3.5,3.5,89,0.00,CLR,,0.00,WeatherDisplay:10.37,2013-08-11 23:32:00,
2013-08-11 19:37:00,81.7,78.1,30.06,West,270,2.3,2.3,89,0.00,CLR,,0.00,WeatherDisplay:10.37,2013-08-11 23:37:00,
2013-08-11 19:42:00,81.7,78.1,30.06,West,270,2.8,0.0,89,0.00,CLR,,0.00,WeatherDisplay:10.37,2013-08-11 23:42:00,
2013-08-11 19:48:00,81.5,77.9,30.06,West,270,5.8,5.8,89,0.00,CLR,,0.00,WeatherDisplay:10.37,2013-08-11 23:48:00,
2013-08-11 19:53:00,81.5,78.3,30.06,West,270,4.6,4.6,90,0.00,CLR,,0.00,WeatherDisplay:10.37,2013-08-11 23:53:00,
2013-08-11 19:58:00,81.3,78.1,30.06,West,270,3.5,3.5,90,0.00,CLR,,0.00,WeatherDisplay:10.37,2013-08-11 23:58:00,
2013-08-11 20:03:00,81.3,78.1,30.06,West,270,0.0,0.0,90,0.00,CLR,,0.00,WeatherDisplay:10.37,2013-08-12 00:03:00,
2013-08-11 20:08:00,81.1,77.9,30.06,West,270,4.6,4.6,90,0.00,CLR,,0.00,WeatherDisplay:10.37,2013-08-12 00:08:00,
2013-08-11 20:13:00,81.0,77.7,30.09,West,270,3.9,3.9,90,0.00,CLR,,0.00,WeatherDisplay:10.37,2013-08-12 00:13:00,
2013-08-11 20:18:00,81.0,77.7,30.09,West,270,0.0,0.0,90,0.00,CLR,,0.00,WeatherDisplay:10.37,2013-08-12 00:18:00,
2013-08-11 20:23:00,80.8,77.2,30.09,West,270,5.8,5.8,89,0.00,CLR,,0.00,WeatherDisplay:10.37,2013-08-12 00:23:00,
2013-08-11 20:28:00,80.8,77.2,30.09,WNW,292,4.6,4.6,89,0.00,CLR,,0.00,WeatherDisplay:10.37,2013-08-12 00:28:00,
2013-08-11 20:34:00,80.6,77.1,30.09,South,180,5.3,5.3,89,0.00,CLR,,0.00,WeatherDisplay:10.37,2013-08-12 00:34:00,
2013-08-11 20:39:00,80.6,77.1,30.09,West,270,4.6,4.6,89,0.00,CLR,,0.00,WeatherDisplay:10.37,2013-08-12 00:39:00,
2013-08-11 20:44:00,80.4,76.9,30.09,West,270,4.8,4.8,89,0.00,CLR,,0.00,WeatherDisplay:10.37,2013-08-12 00:44:00,
2013-08-11 20:49:00,80.2,76.7,30.09,West,270,3.5,3.5,89,0.00,CLR,,0.00,WeatherDisplay:10.37,2013-08-12 00:49:00,
2013-08-11 20:54:00,80.2,76.7,30.09,West,270,4.6,4.6,89,0.00,CLR,,0.00,WeatherDisplay:10.37,2013-08-12 00:54:00,
2013-08-11 21:00:00,80.2,76.7,30.06,West,270,5.3,5.3,89,0.00,CLR,,0.00,WeatherDisplay:10.37,2013-08-12 01:00:00,
2013-08-11 21:05:00,80.2,76.7,30.06,WNW,292,4.6,4.6,89,0.00,CLR,,0.00,WeatherDisplay:10.37,2013-08-12 01:05:00,
2013-08-11 21:10:00,80.1,76.9,30.06,West,270,3.5,0.0,90,0.00,CLR,,0.00,WeatherDisplay:10.37,2013-08-12 01:10:00,
2013-08-11 21:15:00,80.1,76.9,30.06,West,270,4.6,4.6,90,0.00,CLR,,0.00,WeatherDisplay:10.37,2013-08-12 01:15:00,
2013-08-11 21:20:00,80.1,76.9,30.06,West,270,3.5,3.5,90,0.00,CLR,,0.00,WeatherDisplay:10.37,2013-08-12 01:20:00,
2013-08-11 21:25:00,80.1,76.9,30.06,West,270,3.9,3.9,90,0.00,CLR,,0.00,WeatherDisplay:10.37,2013-08-12 01:25:00,
2013-08-11 21:30:00,80.1,77.2,30.03,West,270,3.5,3.5,91,0.00,CLR,,0.00,WeatherDisplay:10.37,2013-08-12 01:30:00,
2013-08-11 21:35:00,80.1,77.2,30.03,West,270,3.5,0.0,91,0.00,CLR,,0.00,WeatherDisplay:10.37,2013-08-12 01:35:00,
2013-08-11 21:40:00,80.1,77.2,30.03,West,270,4.6,0.0,91,0.00,CLR,,0.00,WeatherDisplay:10.37,2013-08-12 01:40:00,
2013-08-11 21:45:00,80.1,77.2,30.06,West,270,3.9,0.0,91,0.00,CLR,,0.00,WeatherDisplay:10.37,2013-08-12 01:45:00,
2013-08-11 21:50:00,80.4,77.9,30.06,West,270,3.2,0.0,92,0.00,CLR,,0.00,WeatherDisplay:10.37,2013-08-12 01:50:00,
2013-08-11 21:56:00,80.4,77.9,30.06,WNW,292,3.9,0.0,92,0.00,CLR,,0.00,WeatherDisplay:10.37,2013-08-12 01:56:00,
2013-08-11 22:01:00,80.4,77.9,30.09,WNW,292,0.0,0.0,92,0.00,CLR,,0.00,WeatherDisplay:10.37,2013-08-12 02:01:00,
2013-08-11 22:06:00,80.6,78.1,30.09,West,270,2.3,0.0,92,0.00,CLR,,0.00,WeatherDisplay:10.37,2013-08-12 02:06:00,
2013-08-11 22:11:00,80.6,78.1,30.09,West,270,3.5,3.5,92,0.00,CLR,,0.00,WeatherDisplay:10.37,2013-08-12 02:11:00,
2013-08-11 22:16:00,80.6,78.1,30.09,West,270,3.5,3.5,92,0.00,CLR,,0.00,WeatherDisplay:10.37,2013-08-12 02:16:00,
2013-08-11 22:21:00,80.6,78.1,30.09,WNW,292,0.0,0.0,92,0.00,CLR,,0.00,WeatherDisplay:10.37,2013-08-12 02:21:00,
2013-08-11 22:26:00,80.6,78.1,30.09,West,270,0.0,0.0,92,0.00,CLR,,0.00,WeatherDisplay:10.37,2013-08-12 02:26:00,
2013-08-11 22:31:00,80.8,78.2,30.09,West,270,4.6,4.6,92,0.00,CLR,,0.00,WeatherDisplay:10.37,2013-08-12 02:31:00,
2013-08-11 22:36:00,80.8,78.2,30.09,South,180,5.3,5.3,92,0.00,CLR,,0.00,WeatherDisplay:10.37,2013-08-12 02:36:00,
2013-08-11 22:41:00,80.8,78.2,30.09,South,180,3.9,3.9,92,0.00,CLR,,0.00,WeatherDisplay:10.37,2013-08-12 02:41:00,
2013-08-11 22:47:00,81.0,78.4,30.09,West,270,5.8,5.8,92,0.00,CLR,,0.00,WeatherDisplay:10.37,2013-08-12 02:47:00,
2013-08-11 22:52:00,81.0,78.4,30.09,WNW,292,3.5,3.5,92,0.00,CLR,,0.00,WeatherDisplay:10.37,2013-08-12 02:52:00,
2013-08-11 22:57:00,81.1,78.6,30.09,West,270,3.9,3.9,92,0.00,CLR,,0.00,WeatherDisplay:10.37,2013-08-12 02:57:00,
2013-08-11 23:02:00,81.1,78.6,30.09,West,270,5.8,5.8,92,0.00,CLR,,0.00,WeatherDisplay:10.37,2013-08-12 03:02:00,
2013-08-11 23:07:00,81.1,78.9,30.09,West,270,5.3,5.3,93,0.00,CLR,,0.00,WeatherDisplay:10.37,2013-08-12 03:07:00,
2013-08-11 23:13:00,81.1,78.9,30.06,West,270,4.6,0.0,93,0.00,CLR,,0.00,WeatherDisplay:10.37,2013-08-12 03:13:00,
2013-08-11 23:18:00,81.1,78.9,30.06,West,270,3.9,3.9,93,0.00,CLR,,0.00,WeatherDisplay:10.37,2013-08-12 03:18:00,
2013-08-11 23:23:00,81.0,78.7,30.06,West,270,4.6,4.6,93,0.00,CLR,,0.00,WeatherDisplay:10.37,2013-08-12 03:23:00,
2013-08-11 23:29:00,81.1,78.9,30.06,West,270,2.8,2.8,93,0.00,CLR,,0.00,WeatherDisplay:10.37,2013-08-12 03:29:00,
2013-08-11 23:34:00,81.1,78.9,30.06,West,270,2.3,0.0,93,0.00,CLR,,0.00,WeatherDisplay:10.37,2013-08-12 03:34:00,
2013-08-11 23:39:00,81.1,78.9,30.06,West,270,2.3,0.0,93,0.00,CLR,,0.00,WeatherDisplay:10.37,2013-08-12 03:39:00,
2013-08-11 23:44:00,81.1,78.9,30.09,West,270,2.3,2.3,93,0.00,CLR,,0.00,WeatherDisplay:10.37,2013-08-12 03:44:00,
2013-08-11 23:49:00,81.1,78.9,30.09,West,270,4.8,4.8,93,0.00,CLR,,0.00,WeatherDisplay:10.37,2013-08-12 03:49:00,
2013-08-11 23:55:00,81.1,78.9,30.09,West,270,2.3,0.0,93,0.00,CLR,,0.00,WeatherDisplay:10.37,2013-08-12 03:55:00,